Location: Baia Mare
(47.6567°N, 23.5850°E)
Time: 22:35:45

ISS - Pass Details

Date: 12 March 2018
Orbit: 403 x 406 km, 51.6° (Epoch: 22 March)

Event Time Altitude Azimuth Distance (km) Brightness Sun altitude
Exits shadow 04:54:32 36° 337° (NNW) 662 -2.9 -19.3°
Maximum altitude 04:55:05 39° 3° (N) 620 -2.8 -19.2°
Drops below altitude 10° 04:58:12 10° 75° (ENE) 1,466 0.3 -18.7°
Sets 05:00:22 0° 84° (E) 2,325 1.6 -18.3°
